Powrót do katalogu

YINHE 2-01

AktywnyŁącznośćVLEO
NORAD 51946·PAYLOAD·🇨🇳 China
Ta nazwa satelity nie została jeszcze potwierdzona przez oficjalne źródła.

Wystrzelony Mar 5, 2022 z Xichang Satellite Launch Center

Loading…

Następne Przeloty (najbliższe 24 godziny)

TLE

ŚwieżeSource: Space-Track

Epoka: Sep 14, 2026, 15:07 UTC

1 51946U 22023A   26257.63025787  .00008125  00000-0  34193-3 0  9993
2 51946  63.4788 326.7639 0118283 346.1146  13.6721 15.17895640251292

Śledź YINHE 2-01 w czasie rzeczywistym z AllMySat

Download on the App Store